Location: Fort Worth, Tx
(32.7431°N, 97.3695°W)
Time: 00:34:48
(UTC-04:00)

Vanguard 1 Rocket - Visible Passes

Search period start: 13 September 2024 00:00
Search period end: 23 September 2024 00:00
Orbit: 649 x 4220 km, 34.3° (Epoch: 12 September)

Date Brightness Start Highest point End Pass type
(mag) Time Alt. Az. Time Alt. Az. Time Alt. Az.
13 Sep 10.3 03:55:41 32° SE 03:55:41 32° SE 04:11:05 10° ENE visible
13 Sep 9.9 06:12:52 33° SW 06:22:10 76° SSE 06:47:25 10° ENE visible
14 Sep 11.0 02:47:37 13° ESE 02:47:37 13° ESE 02:51:00 10° E visible
14 Sep 9.6 05:04:48 52° S 05:07:56 59° SE 05:29:51 10° ENE visible
14 Sep 10.4 07:22:00 13° WSW 07:38:20 89° N 08:05:09 10° E visible
15 Sep 10.1 03:56:43 38° ESE 03:56:43 38° ESE 04:11:57 10° ENE visible
15 Sep 9.8 06:13:54 35° WSW 06:22:40 83° SSE 06:47:51 10° ENE visible
16 Sep 10.9 02:48:37 16° E 02:48:37 16° E 02:53:12 10° E visible
16 Sep 9.4 05:05:48 61° S 05:08:16 67° SSE 05:30:16 10° ENE visible
16 Sep 10.4 07:22:59 13° W 07:39:01 86° N 08:05:45 10° E visible
17 Sep 9.9 03:57:40 44° ESE 03:57:40 44° ESE 04:12:36 10° ENE visible
17 Sep 9.7 06:14:52 36° WSW 06:23:17 88° SSE 06:48:19 10° E visible
18 Sep 10.8 02:49:33 19° E 02:49:33 19° E 02:54:39 10° E visible
18 Sep 9.2 05:06:44 68° SSW 05:08:45 75° SSE 05:30:39 10° ENE visible
18 Sep 10.4 07:23:56 13° W 07:39:43 85° N 08:06:21 10° E visible
19 Sep 9.8 03:58:35 48° ESE 03:58:35 48° ESE 04:13:07 10° ENE visible
19 Sep 9.7 06:15:47 36° W 06:24:00 88° N 06:48:48 10° E visible
20 Sep 10.7 02:50:26 20° E 02:50:26 20° E 02:55:42 10° ENE visible
20 Sep 9.1 05:07:37 73° SW 05:09:23 82° SSE 05:31:02 10° ENE visible
20 Sep 10.3 07:24:49 12° W 07:40:26 86° N 08:06:55 10° E visible
21 Sep 9.7 03:59:28 51° E 03:59:28 51° E 04:13:33 10° ENE visible
21 Sep 9.7 06:16:39 35° W 06:24:46 86° N 06:49:18 10° E visible
22 Sep 10.6 02:51:19 21° E 02:51:19 21° E 02:56:30 10° ENE visible
22 Sep 9.1 05:08:30 76° WSW 05:10:07 88° SSE 05:31:27 10° E visible
22 Sep 10.3 07:25:42 12° W 07:41:06 88° N 08:07:25 10° ESE visible
